Regional Weather Roundup
Issued by NWS

Home | Current Version | Previous Version | Graphics & Text | Print | Product List | Glossary On
Versions: 1 2 3 4 5 6 7 8 9 10 11 12 13 14 15 16 17 18 19 20 21 22 23 24 25 26 27 28 29 30 31 32 33 34 35 36 37 38 39 40 41 42 43 44 45 46 47 48 49 50
414
ASUS43 KDMX 030001
RWRIA

WEATHER ROUNDUP FOR IOWA
NATIONAL WEATHER SERVICE DES MOINES IA
600 PM CST FRI DEC 02 2016

NOTE: "FAIR" INDICATES FEW OR NO CLOUDS BELOW 12,000 FEET WITH NO
SIGNIFICANT WEATHER AND/OR OBSTRUCTIONS TO VISIBILITY.

* - THESE STATIONS ARE NOT NWS STATIONS...THUS NOT UNDER NWS
QUALITY CONTROL.  THEY ALSO DO NOT REPORT WEATHER SUCH
AS PRECIPITATION OR FOG.

IAZ001>003-012>014-020>022-031>034-043>046-030100-
   NORTHWEST IOWA

CITY           SKY/WX    TMP DP  RH WIND       PRES   REMARKS
CARROLL *      CLOUDY    36  34  93 CALM      30.30R
CHEROKEE *     CLOUDY    33  30  86 CALM      30.31R
DENISON *      CLOUDY    36  32  87 N5        30.29R WCI  32
LE MARS *      CLOUDY    34  32  93 NW5       30.32S WCI  30
ORANGE CITY *  CLOUDY    32  28  86 CALM      30.30R
SHELDON *      CLOUDY    32  28  86 NW9       30.28R WCI  24
SIOUX CITY     CLOUDY    36  31  82 NW7       30.33R WCI  30
6HR MIN TEMP:  36; 6HR MAX TEMP:  40;

SPENCER        CLOUDY    32  26  78 NW8       30.29R WCI  25
6HR MIN TEMP:  32; 6HR MAX TEMP:  34;

STORM LAKE *   CLOUDY    32  30  93 NW5       30.30R WCI  27
$$

IAZ055>058-069>071-079>083-090>094-030100-
   SOUTHWEST IOWA

CITY           SKY/WX    TMP DP  RH WIND       PRES   REMARKS
ATLANTIC *     CLOUDY    36  30  80 W5        30.31R WCI  32
AUDUBON *      CLOUDY    36  32  87 CALM      30.32R
CLARINDA *       N/A     34  30  86 N7        30.34R WCI  28
COUNCIL BLFS * PTCLDY    34  28  80 CALM      30.32R
CRESTON *      PTCLDY    34  28  80 NW5       30.32R WCI  30
HARLAN  *      CLOUDY    36  30  80 W6        30.34R WCI  31
LAMONI         MOCLDY    34  28  79 N6        30.30R WCI  29
6HR MIN TEMP:  34; 6HR MAX TEMP:  45;

RED OAK *      MOCLDY    30  27  86 N5        30.32S WCI  25
SHENANDOAH *   PTCLDY    34  30  86 NE6       30.34R WCI  29
$$

IAZ047>049-059>061-072>074-084-030100-
   CENTRAL IOWA

CITY           SKY/WX    TMP DP  RH WIND       PRES   REMARKS
AMES           CLOUDY    36  32  85 N8        30.31R WCI  30
6HR MIN TEMP:  36; 6HR MAX TEMP:  39;

ANKENY *       CLOUDY    36  36 100 CALM      30.32R
BOONE *        CLOUDY    34  32  93 N6        30.30R WCI  29
CHARITON *       N/A     37  32  81 CALM      30.30R
DES MOINES     CLOUDY    38  33  82 N7        30.31R WCI  33
6HR MIN TEMP:  38; 6HR MAX TEMP:  41;

GRINNELL*      CLOUDY    35  30  82 CALM      30.29F
KNOXVILLE *    CLOUDY    39  32  75 CALM      30.29R
MARSHALLTOWN   CLOUDY    33  28  81 NE6       30.30R WCI  28
6HR MIN TEMP:  33; 6HR MAX TEMP:  38;

NEWTON *       CLOUDY    36  30  80 N6        30.29S WCI  31
PELLA *        CLOUDY    37  31  77 N5        30.31S WCI  34
PERRY *        CLOUDY    36  35  95 N5        30.31R WCI  32
$$

IAZ004>006-015-016-023>025-035-036-030100-
   NORTH CENTRAL IOWA

CITY           SKY/WX    TMP DP  RH WIND       PRES   REMARKS
ALGONA *       CLOUDY    32  25  74 N7        30.29R WCI  26
CLARION *      CLOUDY    32  28  86 NW9       30.30R WCI  24
ESTHERVILLE    CLOUDY    30  25  81 N5        30.28S WCI  25
6HR MIN TEMP:  30; 6HR MAX TEMP:  32;

FORT DODGE *   CLOUDY    34  25  69 N5        30.31R WCI  30
MASON CITY     CLOUDY    30  24  78 NW10      30.30R WCI  21
6HR MIN TEMP:  30; 6HR MAX TEMP:  31;

WEBSTER CITY * CLOUDY    34  30  86 N7        30.28R WCI  28
IOWA FALLS *   CLOUDY    34  29  83 NW6       30.31R WCI  29
$$

IAZ007>011-017>019-026>030-037>042-050>054-066-030100-
   NORTHEAST IOWA

CITY           SKY/WX    TMP DP  RH WIND       PRES   REMARKS
CEDAR RAPIDS   CLOUDY    33  28  81 N7        30.29S WCI  27
6HR MIN TEMP:  33; 6HR MAX TEMP:  37;

CHARLES CITY * CLOUDY    30  25  80 NW10      30.29R WCI  21
CLINTON *      CLOUDY    34  27  75 NW13      30.31R WCI  25
DECORAH *      CLOUDY    30  23  74 NW8G18    30.27S WCI  23
DUBUQUE        CLOUDY    32  25  75 W9        30.28R WCI  24
6HR MIN TEMP:  32; 6HR MAX TEMP:  35;

MONTICELLO *   CLOUDY    34  25  69 W9        30.30R WCI  26
OELWEIN *      CLOUDY    32  27  80 NW9G15    30.29R WCI  24
WATERLOO       CLOUDY    32  23  69 NW8       30.30R WCI  25
6HR MIN TEMP:  32; 6HR MAX TEMP:  34;

$$

IAZ064-065-067-068-078-030100-
   EAST CENTRAL IOWA

CITY           SKY/WX    TMP DP  RH WIND       PRES   REMARKS
DAVENPORT      CLOUDY    34  26  72 NW8       30.30R WCI  27
6HR MIN TEMP:  34; 6HR MAX TEMP:  40;

IOWA CITY      CLOUDY    37  26  64 NW7       30.32R WCI  32
6HR MIN TEMP:  37; 6HR MAX TEMP:  41;

MUSCATINE *    CLOUDY    37  28  70 N6        30.32R WCI  33
QUAD CITIES    CLOUDY    37  26  64 NW10      30.31R WCI  30
6HR MIN TEMP:  37; 6HR MAX TEMP:  41;

$$

IAZ062-063-075>077-085>089-095>099-030100-
   SOUTHEAST IOWA

CITY           SKY/WX    TMP DP  RH WIND       PRES   REMARKS
BURLINGTON     CLOUDY    39  31  72 N6        30.30R WCI  35
6HR MIN TEMP:  39; 6HR MAX TEMP:  43;

FAIRFIELD *    CLOUDY    37  30  75 N5        30.30R WCI  34
FORT MADISON * CLOUDY    39  34  81 CALM      30.31S
KEOKUK *       CLOUDY    41  32  70 CALM      30.30S
OSKALOOSA *    CLOUDY    37  31  79 CALM      30.30S
CENTERVILLE *  MOCLDY    37  32  81 CALM      30.31R
OTTUMWA        CLOUDY    39  30  70 N5        30.30R
6HR MIN TEMP:  38; 6HR MAX TEMP:  42;

WASHINGTON *   CLOUDY    37  30  75 N7        30.32R WCI  32
$$

ABBREVIATIONS USED IN REMARKS
   TC - TEMPERATURES IN CELSIUS
  WCI - WIND CHILL INDEX
   HX - HEAT INDEX
  VSB - VISIBILITY
$$





USA.gov is the U.S. government's official web portal to all federal, state and local government web resources and services.